Temperature
15 16 16 16 16 16 16 16 16 16 16 17 17 17 17 17 17 16 16 16 16 16 16 16 16 16 16 16 16 16 16 16 16 16 16 16 16 16 16 16 15 15 16
15 15 16 16 16 16 16 16 16 16 16 16 16 16 16 16 16 16 16 16 16 16 16 16 16 16 16 16 16 16 16 16 16 16 16 16 16 16 16 15 15 15 15
15 15 15 16 16 16 16 16 16 16 16 16 16 16 16 16 16 16 16 16 16 16 16 16 16 16 16 16 16 16 16 16 16 16 15 15 15 16 15 15 15 15 15
15 15 15 15 15 16 16 16 16 16 16 16 16 16 16 16 16 16 16 16 16 16 16 16 16 16 16 16 16 16 16 16 16 16 14 14 14 15 15 15 15 15 15
14 14 15 15 15 16 16 16 16 16 16 16 16 16 16 16 16 16 16 16 16 16 16 16 16 16 16 16 16 16 16 16 16 15 14 14 14 15 15 15 15 15 15
14 14 15 15 15 15 16 16 16 16 16 16 16 16 15 16 16 16 16 16 15 15 15 15 16 16 16 16 16 16 16 16 15 15 14 14 14 15 15 15 15 15 15
14 14 14 15 15 15 15 15 16 16 16 16 16 16 15 15 15 15 15 16 15 15 15 15 15 15 15 16 16 16 15 15 15 14 14 14 14 15 15 15 15 15 15
14 14 14 14 14 15 15 15 15 15 15 15 16 15 15 15 15 15 15 15 15 15 15 15 15 15 15 15 15 15 15 15 15 14 14 14 14 15 15 15 15 15 15
14 14 14 14 14 14 14 15 15 15 15 15 15 15 15 15 15 15 15 15 15 15 15 15 15 15 15 15 15 15 15 15 14 14 14 14 14 14 14 14 14 14 14
13 14 14 14 14 14 14 14 14 14 14 15 15 15 15 15 15 15 15 15 15 15 15 15 15 15 15 15 15 15 15 15 14 14 14 14 14 14 14 14 14 14 14
13 13 13 14 14 14 14 14 14 14 14 14 14 14 14 15 15 15 15 15 15 15 15 15 15 15 15 15 15 15 15 14 14 14 14 14 14 14 14 14 14 14 14
13 13 13 13 13 13 13 14 14 14 14 14 14 14 14 14 14 14 15 15 15 15 15 15 15 15 15 14 15 15 14 14 14 14 14 14 14 14 14 14 14 14 14
12 13 13 13 13 13 13 13 13 13 13 14 14 14 14 14 14 14 14 14 14 14 14 14 14 14 14 14 14 14 14 14 14 14 14 14 14 14 14 14 14 14 14
12 12 12 12 12 12 12 12 12 13 13 13 13 13 13 13 13 13 13 13 14 14 14 14 14 14 14 14 14 14 14 14 14 14 14 14 14 14 14 14 14 14 14
11 12 12 12 12 12 12 12 12 12 12 12 12 13 13 12 12 13 13 13 13 13 13 13 13 13 13 13 14 14 14 14 14 14 14 14 14 14 14 14 14 13 13
11 11 11 11 11 11 11 11 11 11 11 12 12 12 12 12 12 12 12 12 12 12 12 13 13 13 13 13 13 13 13 13 13 13 13 14 14 14 14 14 13 13 13
10 11 11 11 11 11 11 11 11 11 11 11 11 11 11 11 12 12 12 12 12 12 12 12 12 12 13 13 13 13 13 13 13 13 13 13 13 14 14 13 13 13 13
10 10 10 10 10 10 10 10 10 10 10 10 10 11 11 11 11 11 11 11 11 11 11 11 11 12 12 12 12 12 13 13 13 13 13 13 13 13 13 13 13 13 13
10 10 10 10 10 10 10 10 10 10 10 10 10 10 10 10 10 10 10 11 11 10 11 11 11 11 11 11 12 12 12 12 12 12 12 12 12 13 13 13 13 13 13
9 9 9 9 9 9 9 9 9 9 9 9 9 9 10 10 10 10 10 10 10 10 10 10 10 10 10 10 11 11 11 11 11 12 12 12 12 12 12 12 12 12 12
9 9 9 9 9 9 9 9 9 9 9 9 9 9 9 9 9 9 9 9 9 9 9 9 9 9 9 10 10 10 10 11 11 11 11 11 11 11 12 12 12 12 12
8 8 8 8 8 8 8 8 8 8 8 8 8 8 8 8 8 8 8 8 8 9 9 9 9 9 9 9 9 9 9 10 10 10 10 11 11 11 11 11 11 11 11
8 8 8 8 8 8 8 8 8 8 8 8 8 8 8 8 8 8 8 8 8 8 8 8 8 8 8 8 8 8 9 10 9 10 10 10 10 10 10 10 10 10 10
8 8 8 8 8 7 7 7 7 7 7 7 7 7 7 7 7 7 7 7 7 7 7 7 7 7 7 7 8 8 8 8 8 9 9 9 9 10 10 10 10 10 10
7 7 7 7 7 7 7 7 6 6 6 6 6 6 7 7 7 7 7 7 7 7 7 7 7 7 7 7 7 7 7 7 7 8 8 8 8 9 9 9 9 9 9
7 7 7 7 7 7 7 6 6 6 6 6 6 6 6 6 6 6 6 6 6 6 6 6 6 6 6 6 6 6 7 6 7 7 7 7 7 8 8 8 8 8 8
Wind_Speed
3 4 6 6 6 6 7 7 7 7 7 7 7 7 8 8 8 7 7 7 7 7 7 8 8 8 8 8 8 8 9 9 10 10 10 10 10 10 9 8 6 10 11
3 5 6 6 7 7 6 6 6 6 6 6 6 6 7 7 7 7 7 6 6 6 7 7 7 7 8 8 8 9 9 9 9 9 9 9 9 8 8 7 6 9 9
4 5 6 6 7 7 6 6 6 6 6 6 6 5 5 5 6 7 6 6 6 6 7 7 7 7 7 8 8 8 8 9 8 7 6 7 8 8 8 7 8 9 8
5 5 6 7 7 6 6 6 5 5 4 4 5 4 4 4 4 5 6 6 6 5 6 6 6 7 7 8 8 8 8 8 8 6 5 5 7 8 7 7 7 7 7
5 5 7 7 6 6 5 5 4 4 3 3 3 3 3 3 3 4 4 5 5 5 6 6 6 7 7 8 8 8 8 8 7 7 4 4 5 7 6 7 6 6 6
6 5 7 6 6 5 5 4 3 3 2 2 2 2 2 2 2 2 3 4 5 6 6 6 6 7 8 8 8 8 8 8 9 6 5 5 5 7 6 6 6 6 5
6 6 6 7 6 5 4 4 3 2 1 0 1 1 2 2 2 2 2 3 4 5 6 7 7 7 9 9 9 9 9 9 8 6 5 5 4 6 6 6 6 6 5
5 5 5 7 6 5 4 4 3 2 1 1 1 2 2 2 2 2 2 3 3 5 6 7 8 8 9 10 9 9 10 11 8 7 6 6 5 6 7 7 7 6 6
5 5 5 4 5 5 5 3 3 2 1 2 2 3 3 4 4 4 4 4 4 5 5 7 7 8 9 10 10 10 11 12 9 7 7 7 6 8 8 8 8 8 7
5 4 4 4 3 3 3 3 3 2 2 2 2 3 3 4 5 5 6 5 5 5 6 6 8 8 9 10 10 11 11 12 11 9 8 7 7 9 9 9 9 9 8
4 4 4 4 4 3 3 2 2 2 2 2 3 3 4 5 6 6 6 5 6 6 6 7 8 9 9 10 11 12 12 11 11 10 9 7 9 11 10 10 9 10 9
4 4 4 4 4 4 3 2 2 2 2 3 3 3 4 5 5 6 6 7 7 8 8 8 9 10 11 10 11 12 11 12 10 9 9 9 11 12 12 11 11 11 11
3 4 4 4 4 4 3 3 3 3 3 3 3 4 4 5 4 5 5 6 7 8 8 8 9 9 10 9 8 10 11 10 9 9 9 11 13 14 13 13 12 12 12
3 4 5 5 4 4 4 3 3 3 3 3 4 4 4 3 4 4 4 6 6 6 7 7 7 8 9 10 10 10 10 9 9 9 9 11 13 14 14 14 13 13 13
3 4 5 5 4 4 4 3 3 3 3 4 4 4 5 4 4 4 5 5 6 6 6 7 7 8 8 9 10 10 10 11 10 10 9 11 14 14 14 14 14 14 14
3 4 4 4 4 4 4 4 3 4 4 4 4 5 5 5 5 5 5 5 5 6 6 7 8 8 7 7 9 10 11 11 11 11 10 11 14 15 15 15 15 15 15
3 4 5 5 5 4 4 4 4 4 4 4 4 5 5 5 5 5 5 5 5 6 7 7 8 7 7 7 9 10 10 11 10 11 11 10 11 14 15 16 15 16 15
3 4 4 4 5 5 4 4 3 4 4 4 4 5 5 6 6 5 5 5 5 6 6 6 6 6 7 7 8 8 8 9 11 11 10 10 10 10 13 16 16 15 15
3 3 4 4 5 5 4 4 4 4 4 4 4 5 5 6 6 5 4 5 5 5 5 5 6 6 7 7 7 7 8 9 9 10 10 10 10 10 10 12 15 15 14
2 3 4 4 4 5 4 3 3 3 3 4 4 5 6 6 6 5 4 5 5 5 5 5 6 6 6 6 7 7 8 8 8 9 10 9 9 10 11 10 11 12 13
2 3 4 4 5 4 3 3 3 4 4 4 4 5 6 6 6 5 4 5 5 5 5 6 6 6 6 5 6 7 7 8 9 8 8 8 8 9 10 10 10 10 9
2 3 4 4 4 4 4 4 3 4 4 4 4 5 6 6 6 5 5 5 5 5 6 5 5 5 5 5 5 5 5 6 7 7 6 7 8 7 8 8 8 9 8
2 3 3 4 4 4 4 3 3 3 3 3 4 4 5 6 6 5 5 5 5 5 5 5 5 6 6 6 5 5 4 5 4 5 7 6 6 6 6 6 7 8 8
2 2 3 3 4 4 4 4 4 4 4 5 5 5 5 6 6 6 5 5 5 5 5 5 5 6 6 6 6 6 6 5 5 4 4 5 5 5 6 5 5 6 6
2 2 2 3 4 4 4 4 4 4 4 4 5 5 5 5 6 6 5 5 5 5 5 6 5 6 6 6 6 6 7 6 7 6 6 5 5 5 5 6 5 5 5
2 2 2 3 4 4 4 4 4 4 5 5 6 5 5 4 5 6 6 5 5 5 5 6 6 6 6 7 6 6 6 6 6 6 6 6 6 5 5 5 6 5 5
Wind_Direction
96 89 85 90 98 106 108 108 114 117 119 123 127 133 140 143 143 140 137 140 142 141 138 134 134 132 130 126 121 118 116 112 107 103 101 100 101 103 101 101 109 98 91
109 106 102 94 94 98 100 100 99 108 121 127 129 135 143 149 151 150 147 142 145 150 150 145 142 140 139 135 129 125 122 118 113 110 112 114 109 109 108 96 68 94 98
108 109 112 100 99 98 95 93 95 98 108 125 134 141 146 155 159 160 158 153 149 150 153 153 150 146 143 141 138 135 133 129 124 128 155 139 124 120 118 112 102 106 105
101 107 102 96 98 101 101 98 93 92 103 121 128 136 149 154 161 168 169 166 158 152 155 158 158 151 149 150 150 148 144 140 139 165 169 139 135 129 132 126 120 115 111
99 100 96 94 94 95 97 99 103 102 100 110 127 131 138 151 167 173 175 174 172 166 164 164 166 162 160 161 162 161 157 153 159 190 158 151 144 138 145 138 131 125 121
96 91 90 85 91 89 87 88 94 104 113 124 132 149 154 156 157 169 181 182 184 184 182 178 176 176 176 175 175 173 172 169 185 184 178 174 159 150 158 155 152 148 143
92 82 86 77 80 79 81 78 76 73 67 103 217 222 206 194 193 205 193 195 199 196 195 196 192 188 188 188 189 187 184 186 205 192 192 191 172 166 176 174 173 169 166
86 74 79 71 71 69 67 68 64 49 23 329 281 265 252 245 230 225 220 211 209 211 208 206 204 198 195 198 197 197 194 196 211 206 203 203 180 194 194 189 188 186 185
77 68 67 66 65 63 54 51 43 26 352 326 297 276 268 258 246 235 226 223 222 221 220 216 213 208 205 204 204 201 200 204 217 212 211 212 189 207 207 200 198 196 194
65 55 50 48 41 38 37 45 27 3 332 315 295 280 269 255 243 235 229 224 230 229 225 224 222 218 214 210 208 205 203 207 223 218 218 210 198 216 215 211 209 206 206
52 39 31 28 24 17 6 10 0 349 334 300 273 266 259 253 247 239 241 235 234 232 229 228 226 223 218 214 211 206 205 221 225 226 224 206 209 221 221 219 217 215 215
32 21 18 13 7 358 349 341 333 324 316 301 296 281 265 261 255 255 244 233 234 232 229 228 229 221 221 221 211 206 221 227 229 227 224 205 216 224 226 223 224 223 221
20 12 5 1 355 350 346 333 324 318 313 305 303 293 281 271 262 256 252 237 234 233 234 229 227 228 228 228 223 218 228 230 230 230 224 204 218 224 226 226 226 228 228
14 4 359 357 350 346 340 334 319 313 312 310 304 297 285 276 268 265 257 252 247 241 240 237 236 235 236 232 231 229 229 230 232 232 228 205 218 226 228 230 231 230 230
360 353 352 353 349 346 342 334 327 318 310 307 306 298 290 277 270 267 264 260 255 251 245 244 243 243 242 238 235 236 235 234 234 231 228 208 215 225 230 232 233 233 231
349 347 345 347 347 341 336 331 327 324 318 312 308 302 295 285 278 274 268 265 264 259 257 253 249 247 245 244 241 239 238 237 236 235 234 218 213 222 229 232 234 235 234
349 348 347 345 346 342 337 333 330 325 319 315 313 307 301 291 282 276 273 269 269 266 262 259 254 251 249 247 246 244 242 239 236 235 235 234 224 221 227 233 236 237 235
350 352 351 349 348 345 340 333 330 326 322 318 315 308 304 297 288 282 276 272 274 268 266 262 258 251 249 248 251 249 243 241 240 238 235 235 235 232 226 228 233 235 235
357 356 354 352 348 345 339 332 328 325 325 323 320 321 317 308 301 294 284 281 277 269 265 264 261 259 258 255 254 253 248 241 240 238 237 237 236 237 236 224 223 230 235
355 353 349 347 347 343 340 335 332 330 330 329 327 327 323 319 314 305 292 287 282 270 266 264 264 261 264 263 261 258 254 246 242 239 238 238 238 237 238 236 227 227 227
342 346 345 344 347 348 343 336 330 327 325 325 328 326 322 319 315 306 295 290 283 271 267 266 267 265 264 270 268 267 262 250 242 238 237 238 236 237 237 238 234 229 225
321 337 338 338 337 339 332 322 310 311 313 316 319 324 323 320 313 306 296 287 280 273 268 267 267 266 264 257 257 266 263 255 240 237 236 236 238 235 236 238 243 237 234
309 323 329 332 329 330 328 318 313 308 301 302 313 320 327 324 316 309 301 292 286 277 271 269 263 259 261 260 250 247 253 249 269 239 240 238 240 240 239 240 242 248 242
287 304 315 322 326 329 327 317 313 305 305 308 313 313 321 326 324 314 304 297 290 282 273 270 265 262 257 256 253 247 255 268 255 250 239 244 248 251 253 247 243 241 244
272 287 301 314 321 328 328 322 313 307 307 309 307 308 316 323 325 323 312 302 292 285 279 273 268 260 254 251 250 250 250 258 259 253 254 252 256 258 262 252 244 245 248
259 274 289 303 315 325 327 324 317 310 308 308 308 309 312 314 319 324 321 309 299 291 283 277 270 263 258 254 251 248 247 243 249 251 255 258 260 262 266 256 245 243 245
Height
1533 1533 1534 1535 1536 1537 1538 1538 1539 1540 1541 1541 1541 1542 1542 1542 1542 1542 1543 1543 1543 1543 1543 1543 1543 1544 1544 1544 1544 1544 1544 1544 1543 1543 1543 1543 1543 1543 1543 1543 1543 1543 1542
1532 1533 1534 1535 1536 1537 1538 1538 1539 1540 1541 1541 1542 1542 1542 1542 1543 1543 1543 1543 1543 1544 1544 1544 1544 1544 1544 1544 1544 1544 1544 1544 1544 1544 1544 1544 1544 1544 1544 1544 1544 1544 1543
1532 1533 1534 1535 1536 1537 1537 1538 1539 1540 1541 1541 1541 1542 1542 1542 1543 1543 1543 1543 1543 1544 1544 1544 1544 1544 1544 1544 1545 1545 1545 1545 1545 1545 1545 1545 1545 1544 1544 1544 1544 1544 1544
1532 1533 1534 1535 1536 1537 1537 1538 1539 1540 1540 1541 1541 1542 1542 1542 1542 1543 1543 1543 1543 1543 1544 1544 1544 1544 1544 1544 1545 1545 1545 1545 1545 1545 1546 1546 1546 1545 1545 1545 1545 1544 1544
1532 1533 1534 1535 1536 1537 1537 1538 1539 1539 1540 1540 1540 1541 1541 1541 1542 1542 1542 1542 1543 1543 1543 1543 1543 1544 1544 1544 1544 1544 1545 1545 1545 1545 1546 1546 1546 1545 1545 1545 1545 1545 1545
1532 1533 1534 1535 1535 1536 1537 1537 1538 1538 1539 1539 1539 1540 1540 1541 1541 1541 1541 1542 1542 1542 1542 1543 1543 1543 1543 1543 1544 1544 1544 1545 1545 1545 1546 1546 1546 1545 1545 1545 1545 1545 1545
1532 1532 1533 1534 1535 1535 1536 1536 1537 1537 1537 1538 1538 1538 1539 1539 1539 1540 1540 1540 1541 1541 1541 1541 1542 1542 1542 1543 1543 1543 1544 1544 1544 1545 1545 1545 1545 1544 1544 1544 1544 1545 1545
1531 1532 1533 1533 1534 1534 1535 1535 1535 1535 1536 1536 1536 1537 1537 1537 1538 1538 1538 1539 1539 1539 1540 1540 1540 1541 1541 1541 1542 1542 1543 1543 1543 1544 1544 1544 1544 1544 1544 1544 1544 1544 1544
1531 1531 1532 1532 1533 1533 1533 1533 1533 1533 1534 1534 1534 1534 1534 1535 1535 1536 1536 1537 1537 1537 1538 1538 1538 1539 1539 1540 1540 1541 1541 1542 1542 1542 1542 1543 1543 1543 1543 1543 1543 1543 1543
1530 1530 1530 1531 1531 1531 1531 1531 1531 1531 1531 1531 1532 1532 1532 1532 1533 1533 1534 1534 1534 1535 1535 1536 1536 1537 1537 1538 1538 1539 1539 1540 1540 1541 1541 1541 1541 1541 1541 1542 1542 1542 1542
1529 1529 1529 1529 1529 1529 1529 1529 1529 1529 1529 1529 1529 1529 1529 1529 1530 1530 1530 1531 1532 1532 1533 1533 1534 1534 1535 1535 1536 1536 1537 1537 1538 1538 1538 1538 1539 1539 1539 1540 1540 1541 1541
1527 1527 1527 1527 1527 1527 1526 1526 1526 1526 1526 1526 1526 1526 1526 1526 1526 1526 1527 1527 1528 1529 1529 1530 1530 1531 1532 1532 1533 1533 1534 1534 1535 1535 1535 1535 1536 1537 1537 1537 1538 1538 1539
1526 1526 1525 1525 1524 1524 1524 1524 1523 1523 1523 1523 1523 1523 1523 1523 1523 1523 1523 1523 1524 1525 1525 1526 1527 1527 1528 1528 1529 1529 1530 1531 1531 1532 1532 1532 1533 1533 1534 1535 1535 1536 1536
1524 1524 1524 1523 1522 1522 1521 1521 1521 1520 1520 1520 1520 1520 1519 1519 1519 1519 1520 1520 1520 1520 1521 1521 1522 1523 1524 1524 1525 1526 1526 1527 1527 1528 1528 1528 1529 1530 1531 1531 1532 1532 1533
1522 1522 1521 1521 1520 1519 1519 1518 1518 1517 1517 1517 1516 1516 1516 1516 1516 1516 1516 1516 1516 1516 1517 1517 1518 1519 1519 1520 1520 1521 1522 1522 1523 1523 1524 1524 1525 1526 1527 1527 1528 1528 1529
1521 1520 1519 1519 1518 1517 1516 1516 1515 1514 1514 1513 1513 1513 1513 1512 1512 1512 1512 1512 1512 1512 1513 1513 1513 1514 1514 1515 1515 1516 1517 1517 1518 1519 1519 1520 1520 1521 1522 1523 1524 1524 1525
1519 1518 1517 1517 1516 1515 1514 1513 1512 1511 1511 1510 1510 1509 1509 1509 1508 1508 1508 1508 1508 1508 1508 1508 1509 1509 1509 1510 1510 1511 1512 1512 1513 1514 1514 1515 1515 1516 1517 1518 1519 1520 1520
1517 1516 1516 1514 1513 1512 1511 1510 1509 1508 1507 1507 1506 1506 1505 1505 1505 1504 1504 1504 1504 1504 1504 1504 1504 1504 1504 1505 1505 1506 1506 1507 1507 1508 1509 1510 1510 1511 1512 1513 1514 1515 1516
1515 1514 1513 1512 1511 1510 1509 1508 1506 1505 1504 1504 1503 1502 1502 1501 1501 1500 1500 1499 1499 1499 1499 1499 1500 1500 1500 1499 1500 1500 1501 1501 1501 1502 1503 1504 1505 1506 1507 1507 1508 1509 1510
1513 1513 1512 1510 1509 1507 1506 1505 1504 1503 1502 1501 1500 1499 1498 1497 1497 1496 1496 1496 1495 1495 1495 1495 1495 1495 1495 1495 1495 1495 1495 1495 1496 1496 1497 1498 1499 1500 1500 1502 1502 1503 1504
1511 1511 1510 1508 1507 1505 1504 1502 1501 1500 1499 1498 1497 1496 1495 1494 1493 1492 1492 1491 1491 1491 1490 1491 1491 1491 1490 1491 1491 1490 1490 1489 1490 1490 1491 1492 1493 1494 1495 1495 1496 1496 1497
1509 1508 1507 1506 1505 1503 1501 1500 1499 1497 1495 1494 1493 1492 1491 1490 1489 1489 1488 1487 1487 1487 1486 1486 1486 1486 1486 1486 1487 1487 1486 1486 1484 1485 1485 1486 1487 1488 1489 1489 1490 1490 1491
1507 1506 1505 1504 1502 1501 1499 1497 1496 1494 1492 1491 1490 1488 1487 1486 1485 1484 1484 1483 1482 1482 1482 1481 1482 1481 1481 1482 1482 1483 1482 1481 1480 1479 1480 1481 1481 1482 1483 1484 1484 1485 1485
1504 1504 1502 1501 1500 1498 1496 1495 1493 1491 1490 1488 1487 1485 1483 1482 1481 1480 1479 1478 1478 1478 1477 1477 1477 1477 1477 1477 1477 1477 1478 1478 1478 1475 1475 1476 1476 1476 1477 1478 1478 1479 1479
1502 1501 1500 1499 1498 1496 1494 1492 1491 1489 1487 1485 1483 1481 1480 1478 1477 1476 1475 1474 1473 1473 1472 1472 1472 1472 1472 1472 1472 1472 1472 1472 1472 1472 1470 1470 1471 1471 1471 1471 1472 1472 1473
1499 1498 1497 1496 1495 1493 1492 1490 1488 1486 1484 1482 1481 1479 1477 1475 1474 1473 1471 1470 1469 1468 1468 1467 1467 1467 1467 1467 1467 1467 1467 1467 1467 1467 1466 1465 1465 1465 1466 1466 1466 1466 1467